Starlink 31535

operational
NORAD ID: 59504 Int'l Des: 2024-071 Owner: SPXS Country: US Constellation: starlink
LEOCIRCULAR

About Starlink 31535

Description loading...

Live Position

Loading 3D Globe...

Upcoming Passes

Altitude History

Altitude vs Time

uPlot chart will show altitude changes over time

Two-Line Element Set

1 59504U 24071W 25304.47176812 .00007486 00000-0 28132-3 0 9991
2 59504 43.0033 357.2582 0001512 261.4463 98.6217 15.27574997 88358
Epoch: Oct 31, 2025 • Age: 26 hours

Current Status

Altitude 495.3 km
Velocity 7.62 km/s
Sub-Earth Point -43.15°S, 14.29°E
Launch Date Apr 13, 2024
Age 1.5 years
Type internet

Technical Details

Classification Payload
Mass 730.00 kg
Dry Mass 700.00 kg
Total Mass 730.00 kg
Length 0.30 m
Diameter 4.10 m
Span 29.00 m
Shape Box + pan
Manufacturer SPXS
Bus Type Starlink V2M
Phase Status In Orbit
Owner/State SPXS/US

Large Constellations

Loading constellations...